Kezdőlap
METAR-TAF:

METAR-TAF

Repülőterek :

Dodge Center Airport (Dodge Center Municipal)

Dodge Center, Minnesota, Amerikai Egyesült Államok

földrajzi szélesség: 44-01-05N, földrajzi hosszúság: 092-49-53W, magasság: 398 m

Jelenlegi meteorológiai megfigyelések

A jelentés 34 perccel ezelõtt készült, 12:55 UTC
Keleti szél 20 kt széllökések: 29 kt
Hőmérséklet 9°C
Páratartalom 71%
Légköri nyomás 1010 hPa
Látótávolság: 16.1 km
Szórványos felhőzet 3000 lábon
Szórványos felhőzet 5000 lábon
Szakadozott felhőzet 10000 lábon

METAR: KTOB 161255Z AUTO 10020G29KT 10SM SCT030 SCT050 BKN100 09/04 A2982 RMK AO2

Idő: 08:29 (13:29 UTC)


TAF: hiányzik

Meteorológiai megfigyelések és előrejelzések több, mint 4000 repülőtéren (METAR és TAF jelentéseket).

A térképen piros és sárga pontok jelzik az elérhető meteorológiai állomásokat.

Mozgassa az egeret a pont fölött, hogy megjelenjen az állomás neve.

Azután kattintson az időjárási megfigyelések és előrejelzések megtekintéséhez.

A térkép megváltoztatása: kattintson a fekete keresztel jelölt zöld gombra ráközelítéshez, a vonallal jelölt zöld gombra távolításhoz, vagy a zöld nyilakra a szomszédos térképek eléréséhez.


METAR-TAF: